CAPE
0 0 0 0 0 0 0 0 0 0 0 45 64 598 1198 1249 1479 747 1382 1760 1274 1139 1003 1077 1259 1614 1939 2074 2201 2378 2443 2339 2277 2129 1880 1777 1436 1316 1397 1550 1877 1922 1813 1821 1825 1915 2017 2041 1966
0 0 0 0 0 0 0 1 0 0 325 176 457 449 990 1522 995 1310 1115 1120 1010 852 999 1061 1154 1384 1541 1598 1736 1817 1877 1639 1480 1462 1297 1085 961 838 787 779 743 858 826 1121 1180 1030 845 830 982
0 0 0 0 0 0 0 0 0 274 624 159 312 1346 1559 1192 866 924 710 765 947 994 793 702 753 942 1116 947 1046 933 987 1049 885 1000 923 992 859 949 945 798 749 726 583 608 596 624 659 663 610
0 0 0 0 0 0 0 0 0 4 596 130 300 1618 1080 993 623 603 763 658 447 364 251 481 465 615 720 784 742 750 718 609 640 413 403 240 226 321 304 249 264 258 234 234 241 259 296 380 508
0 0 0 0 0 0 0 0 0 0 201 215 285 1392 801 683 636 550 616 423 232 177 504 436 309 335 405 428 413 423 303 201 117 61 42 25 19 10 0 0 0 0 0 0 0 0 0 71 180
0 0 0 0 0 0 0 0 0 0 40 309 307 1332 873 415 383 379 467 413 208 115 348 313 232 277 297 316 295 63 9 0 0 0 0 0 0 0 0 0 0 0 0 0 0 0 0 0 0
0 0 0 0 0 0 0 0 0 0 4 196 323 1496 1116 822 324 466 503 359 410 214 32 86 248 290 323 280 125 9 0 0 0 0 0 0 0 0 0 0 0 0 0 0 0 0 0 0 0
0 0 0 0 0 0 0 0 0 0 0 55 296 836 780 1026 435 210 208 463 533 373 196 126 276 321 343 282 109 0 0 0 0 0 0 0 0 0 0 0 0 0 0 0 0 0 0 0 0
0 0 0 0 0 0 0 0 0 0 0 641 1133 1030 1089 1196 664 219 243 294 146 374 223 149 309 359 376 304 71 0 0 0 0 0 0 0 0 0 0 0 0 0 0 0 0 0 0 0 0
0 0 0 0 0 0 0 0 0 0 32 395 996 1094 1070 1045 730 150 125 143 370 224 114 183 314 408 397 169 0 0 0 0 0 0 0 0 0 0 0 0 0 0 0 0 0 0 0 0 0
0 0 0 0 0 0 0 0 0 0 0 7 736 858 899 831 640 46 14 295 343 8 25 346 429 350 175 0 0 0 0 0 0 0 0 0 0 0 0 0 0 0 0 0 0 0 0 0 0
0 0 0 0 0 0 0 0 0 0 0 0 13 457 611 441 225 116 10 186 58 160 209 377 356 215 29 0 0 0 0 0 0 0 0 0 0 0 0 0 0 0 0 0 0 0 0 0 0
0 0 0 0 0 0 0 0 0 0 0 0 0 274 500 500 260 71 32 74 273 312 391 253 203 100 0 0 0 0 0 0 0 0 0 0 0 0 0 0 0 0 0 0 0 0 0 0 0
0 0 0 0 0 0 0 0 0 0 0 0 0 406 303 378 340 211 64 196 277 290 324 278 107 10 0 0 0 0 0 0 0 0 0 0 0 0 0 0 0 0 0 0 0 0 0 0 0
0 0 0 0 0 0 0 0 0 0 0 0 0 45 362 210 77 18 24 312 235 122 121 327 226 154 10 0 0 0 0 0 0 0 0 0 0 0 0 0 0 0 0 0 0 0 0 0 0
0 0 0 0 0 0 0 0 0 0 0 0 0 2 65 479 152 48 79 297 157 67 15 256 287 204 59 0 0 0 0 0 0 0 0 0 0 0 0 0 0 0 0 0 0 0 0 0 0
0 0 0 0 0 0 0 0 0 0 0 0 0 0 0 314 343 153 127 112 88 51 72 191 241 172 16 0 0 0 0 0 0 0 0 0 0 0 0 0 0 0 0 0 0 0 0 0 0
0 0 0 0 0 0 0 0 0 0 0 0 0 7 0 167 338 203 217 94 7 1 48 145 184 119 0 0 0 0 0 0 0 0 0 0 0 0 0 0 0 0 0 0 0 0 0 0 0
0 0 0 0 0 0 0 0 0 0 0 0 0 0 0 68 335 289 298 87 0 0 21 89 168 55 0 0 0 0 0 0 0 0 0 0 0 0 0 0 0 0 0 0 0 0 0 0 0
20 23 0 0 0 0 0 0 0 0 0 0 0 0 0 10 47 479 322 154 0 0 13 53 108 20 0 0 0 0 0 0 0 0 0 0 0 0 0 0 0 0 0 0 0 0 0 0 0
50 20 10 1 0 11 8 0 0 0 1 0 0 0 0 0 60 94 46 49 0 0 3 46 75 2 0 0 0 0 0 0 0 0 0 0 0 0 0 0 0 0 0 0 0 0 0 0 0
92 74 64 79 43 26 34 9 0 0 0 1 0 0 0 0 34 32 0 10 1 0 0 30 42 0 0 0 0 0 0 0 0 0 0 0 0 0 0 0 0 0 0 0 0 0 0 0 0
77 181 146 122 87 110 0 98 0 0 0 3 24 31 0 0 0 20 0 0 8 0 0 24 23 0 0 0 0 0 0 0 0 0 0 0 0 0 0 0 0 0 0 0 0 0 0 0 0
49 72 91 95 15 37 0 154 0 0 4 10 29 76 37 0 0 11 0 0 0 0 0 3 6 0 0 0 0 0 0 0 0 0 0 0 0 0 0 0 0 0 0 0 0 0 0 0 0
99 63 65 32 69 10 0 40 1 0 1 22 84 37 8 0 1 0 0 0 0 0 0 0 0 0 9 1 0 0 0 0 0 0 0 0 0 0 0 0 0 0 0 0 0 0 0 0 0
199 161 88 13 98 2 4 14 0 0 0 0 28 0 0 6 7 0 0 0 0 0 0 0 0 10 20 13 0 0 0 0 0 0 0 0 0 0 0 0 0 0 0 0 0 0 0 0 0
16 173 53 227 251 189 0 0 0 0 9 0 0 0 0 11 5 0 0 0 0 0 0 0 0 2 11 5 0 0 0 0 0 0 0 0 0 0 0 0 0 0 0 0 0 0 0 0 0
135 100 191 109 21 40 2 42 174 203 156 54 2 0 3 0 0 0 0 0 0 0 0 0 0 0 4 1 0 0 0 0 0 0 0 0 0 0 0 0 0 0 0 0 0 0 0 0 0
333 212 171 95 40 1 9 305 97 20 95 70 32 1 3 6 0 0 0 0 0 0 0 0 0 0 0 0 0 0 0 0 0 0 0 0 0 0 0 0 0 0 0 0 0 0 0 0 0
75 98 230 161 1 1 3 38 0 36 26 108 95 1 0 13 0 0 0 0 0 0 0 0 0 0 0 0 0 0 0 0 0 0 0 0 0 0 0 0 0 0 0 0 0 0 0 0 0
CIN
0 0 0 0 0 0 0 0 0 0 0 -87 -86 -20 -208 -341 -295 -137 -204 -116 -198 -202 -187 -143 -92 -37 -11 -3 0 0 0 0 0 -2 -2 -6 -22 -28 -26 -11 -3 0 0 0 0 0 0 0 0
0 0 0 0 0 0 0 -1 0 0 -47 -110 -91 -60 -22 -228 -357 -276 -280 -217 -209 -193 -156 -112 -83 -45 -35 -35 -21 -13 -5 -9 -17 -22 -24 -48 -60 -71 -82 -79 -77 -49 -38 -9 -11 -25 -38 -42 -32
0 0 0 0 0 0 0 0 0 -10 -53 -69 -83 -65 -56 -265 -293 -278 -313 -282 -203 -163 -178 -155 -122 -91 -69 -82 -54 -73 -59 -48 -64 -58 -55 -44 -59 -35 -26 -32 -29 -28 -33 -39 -38 -25 -19 -24 -39
0 0 0 0 0 0 0 0 0 -18 -46 -74 -63 -77 -151 -214 -292 -289 -243 -263 -279 -278 -291 -188 -159 -118 -104 -82 -93 -87 -93 -110 -103 -142 -133 -162 -163 -131 -113 -112 -106 -101 -112 -129 -126 -122 -101 -86 -50
0 0 0 0 0 0 0 0 0 0 -36 -83 -60 -55 -191 -127 -291 -240 -228 -301 -301 -330 -195 -186 -200 -179 -149 -139 -144 -134 -143 -168 -186 -216 -223 -186 -195 -198 0 0 0 0 0 0 0 0 -26 -149 -165
0 0 0 0 0 0 0 0 0 0 -28 -48 -52 -86 -67 -328 -338 -261 -218 -274 -268 -222 -214 -207 -212 -194 -157 -123 -108 -172 -146 0 0 0 0 0 0 0 0 0 0 0 0 0 0 0 0 0 0
0 0 0 0 0 0 0 0 0 0 -50 -26 -2 -44 -26 -25 -322 -222 -203 -250 -218 -155 -146 -270 -199 -169 -143 -93 -87 -131 0 0 0 0 0 0 0 0 0 0 0 0 0 0 0 0 0 0 0
0 0 0 0 0 0 0 0 0 0 0 -5 -1 -44 -45 -38 -41 -149 -123 -210 -189 -184 -106 -210 -169 -151 -121 -87 -72 0 0 0 0 0 0 0 0 0 0 0 0 0 0 0 0 0 0 0 0
0 0 0 0 0 0 0 0 0 0 0 -8 -25 -115 -51 -34 -49 -68 -135 -109 -240 -187 -102 -131 -162 -125 -92 -84 -73 0 0 0 0 0 0 0 0 0 0 0 0 0 0 0 0 0 0 0 0
0 0 0 0 0 0 0 0 0 0 -25 -7 -22 -32 -41 -20 -36 -59 -178 -234 -203 -183 -157 -192 -156 -95 -80 -106 0 0 0 0 0 0 0 0 0 0 0 0 0 0 0 0 0 0 0 0 0
0 0 0 0 0 0 0 0 0 0 0 -5 -24 -20 -43 -34 -35 -98 -139 -225 -188 -325 -303 -162 -133 -99 -110 -18 0 0 0 0 0 0 0 0 0 0 0 0 0 0 0 0 0 0 0 0 0
0 0 0 0 0 0 0 0 0 0 0 0 -2 -73 -42 -64 -100 -49 -162 -235 -302 -227 -203 -135 -123 -119 -143 0 0 0 0 0 0 0 0 0 0 0 0 0 0 0 0 0 0 0 0 0 0
0 0 0 0 0 0 0 0 0 0 0 0 0 -100 -28 -48 -46 -69 -133 -107 -148 -158 -145 -148 -138 -150 0 0 0 0 0 0 0 0 0 0 0 0 0 0 0 0 0 0 0 0 0 0 0
0 0 0 0 0 0 0 0 0 0 0 0 0 -119 -45 -34 -64 -53 -150 -182 -138 -165 -136 -99 -95 -87 0 0 0 0 0 0 0 0 0 0 0 0 0 0 0 0 0 0 0 0 0 0 0
0 0 0 0 0 0 0 0 0 0 0 0 0 -13 -70 -45 -107 -251 -217 -139 -128 -163 -141 -107 -94 -82 -68 0 0 0 0 0 0 0 0 0 0 0 0 0 0 0 0 0 0 0 0 0 0
0 0 0 0 0 0 0 0 0 0 0 0 0 -7 -5 -20 -127 -252 -238 -79 -137 -153 -120 -119 -97 -84 -61 0 0 0 0 0 0 0 0 0 0 0 0 0 0 0 0 0 0 0 0 0 0
0 0 0 0 0 0 0 0 0 0 0 0 0 0 0 -8 -30 -161 -181 -100 -156 -135 -85 -120 -94 -74 -69 0 0 0 0 0 0 0 0 0 0 0 0 0 0 0 0 0 0 0 0 0 0
0 0 0 0 0 0 0 0 0 0 0 0 0 -23 0 -11 -21 -111 -89 -112 -188 -59 -127 -86 -78 -69 -3 0 0 0 0 0 0 0 0 0 0 0 0 0 0 0 0 0 0 0 0 0 0
0 0 0 0 0 0 0 0 0 0 0 0 0 0 0 -18 -13 -37 -23 -81 0 0 -158 -105 -89 -79 0 0 0 0 0 0 0 0 0 0 0 0 0 0 0 0 0 0 0 0 0 0 0
-1 -1 0 0 0 0 0 0 0 0 0 0 0 0 -2 -6 -35 -17 -2 -70 0 0 -204 -100 -86 -80 0 0 0 0 0 0 0 0 0 0 0 0 0 0 0 0 0 0 0 0 0 0 0
0 0 0 0 0 -1 0 0 0 0 0 0 0 0 0 0 -50 -72 -95 -167 0 0 -178 -120 -67 -38 0 0 0 0 0 0 0 0 0 0 0 0 0 0 0 0 0 0 0 0 0 0 0
-12 -7 0 0 -1 0 -20 0 0 0 0 0 -1 0 0 0 -40 -79 -4 -196 -132 0 0 -105 -58 0 0 0 0 0 0 0 0 0 0 0 0 0 0 0 0 0 0 0 0 0 0 0 0
-12 0 0 -7 -4 -1 -16 0 0 0 0 -80 -40 -10 0 0 0 -49 0 0 -219 0 0 -73 -52 0 0 0 0 0 0 0 0 0 0 0 0 0 0 0 0 0 0 0 0 0 0 0 0
-1 -8 -29 -23 -8 -2 0 -2 0 0 -129 -85 -50 -50 -14 0 0 -127 0 0 0 -35 0 -111 -98 0 0 0 0 0 0 0 0 0 0 0 0 0 0 0 0 0 0 0 0 0 0 0 0
-3 -6 -2 0 0 -1 0 -5 -20 0 -79 -64 -33 -45 -39 -2 -6 0 0 0 0 0 0 0 0 0 -52 -44 0 0 0 0 0 0 0 0 0 0 0 0 0 0 0 0 0 0 0 0 0
0 0 -3 -1 0 -21 -12 -1 0 -110 0 -7 -31 0 0 -11 -12 0 0 0 0 0 0 0 0 -77 -55 -63 0 0 0 0 0 0 0 0 0 0 0 0 0 0 0 0 0 0 0 0 0
-112 -7 -56 -1 -3 0 0 0 0 0 -8 -2 0 0 0 -19 -19 0 0 0 0 0 0 0 0 -115 -77 -81 0 0 0 0 0 0 0 0 0 0 0 0 0 0 0 0 0 0 0 0 0
-11 -17 -2 -1 0 0 -58 -92 -24 -46 -13 -6 -24 0 -17 0 0 0 0 0 0 0 0 0 0 0 -85 -54 0 0 0 0 0 0 0 0 0 0 0 0 0 0 0 0 0 0 0 0 0
-5 -3 -1 -4 -13 -2 -12 -1 -23 -118 -26 -7 -14 -34 -80 -24 0 0 0 0 0 0 0 0 0 0 0 0 0 0 0 0 0 0 0 0 0 0 0 0 0 0 0 0 0 0 0 0 0
-7 -9 -1 -1 -2 0 -10 -62 0 -8 -20 -1 -2 -37 -4 -12 -2 0 0 0 0 0 0 0 0 0 0 0 0 0 0 0 0 0 0 0 0 0 0 0 0 0 0 0 0 0 0 0 0
Wind_Speed
nan nan nan nan nan nan nan nan nan nan nan nan nan 34 40 35 33 42 35 39 38 39 34 33 33 33 31 28 28 30 27 29 31 31 32 32 29 26 25 24 23 20 20 18 16 14 14 17 16
nan nan nan nan nan nan nan nan nan nan 44 27 28 25 32 35 35 41 38 41 41 38 36 34 35 33 32 32 33 37 35 32 31 34 34 34 33 31 30 27 25 22 21 20 20 20 18 18 16
nan nan nan nan nan nan nan nan nan 49 36 29 28 37 34 30 41 35 40 46 42 41 39 36 38 35 34 35 37 37 36 33 33 34 35 35 35 33 31 29 26 24 22 20 18 18 18 16 15
nan nan nan nan nan nan nan nan nan nan 38 28 33 38 38 37 41 42 43 46 45 43 42 39 39 35 35 34 39 38 36 35 35 36 36 36 35 33 31 29 26 24 22 22 21 20 18 18 16
nan nan nan nan nan nan nan nan nan nan 37 30 31 44 35 40 51 46 48 45 48 43 41 41 39 35 34 35 37 38 36 35 35 nan nan nan nan nan nan nan nan nan nan nan nan nan nan nan 17
nan nan nan nan nan nan nan nan nan nan nan 33 29 51 35 46 52 45 49 46 45 44 41 40 39 36 33 33 36 nan nan nan nan nan nan nan nan nan nan nan nan nan nan nan nan nan nan nan nan
nan nan nan nan nan nan nan nan nan nan nan 29 32 47 42 46 49 48 51 47 45 44 nan nan 35 36 37 34 37 nan nan nan nan nan nan nan nan nan nan nan nan nan nan nan nan nan nan nan nan
nan nan nan nan nan nan nan nan nan nan nan nan 37 44 46 47 49 46 52 48 44 42 40 38 34 33 33 32 38 nan nan nan nan nan nan nan nan nan nan nan nan nan nan nan nan nan nan nan nan
nan nan nan nan nan nan nan nan nan nan nan 41 53 52 52 56 54 51 48 45 44 40 39 38 34 36 35 35 nan nan nan nan nan nan nan nan nan nan nan nan nan nan nan nan nan nan nan nan nan
nan nan nan nan nan nan nan nan nan nan nan 36 66 62 61 56 52 50 49 46 43 42 37 35 35 39 36 37 nan nan nan nan nan nan nan nan nan nan nan nan nan nan nan nan nan nan nan nan nan
nan nan nan nan nan nan nan nan nan nan nan nan 46 65 59 57 48 nan nan 46 46 nan nan 36 37 38 33 nan nan nan nan nan nan nan nan nan nan nan nan nan nan nan nan nan nan nan nan nan nan
nan nan nan nan nan nan nan nan nan nan nan nan nan 74 63 52 47 42 nan 44 nan 40 41 40 40 36 nan nan nan nan nan nan nan nan nan nan nan nan nan nan nan nan nan nan nan nan nan nan nan
nan nan nan nan nan nan nan nan nan nan nan nan nan 76 64 52 45 nan nan nan 42 40 40 42 42 38 nan nan nan nan nan nan nan nan nan nan nan nan nan nan nan nan nan nan nan nan nan nan nan
nan nan nan nan nan nan nan nan nan nan nan nan nan 70 60 53 45 44 nan 40 37 41 43 44 44 nan nan nan nan nan nan nan nan nan nan nan nan nan nan nan nan nan nan nan nan nan nan nan nan
nan nan nan nan nan nan nan nan nan nan nan nan nan nan 62 50 nan nan nan 38 40 42 44 43 44 42 nan nan nan nan nan nan nan nan nan nan nan nan nan nan nan nan nan nan nan nan nan nan nan
nan nan nan nan nan nan nan nan nan nan nan nan nan nan nan 58 48 nan nan 35 44 nan nan 43 43 42 nan nan nan nan nan nan nan nan nan nan nan nan nan nan nan nan nan nan nan nan nan nan nan
nan nan nan nan nan nan nan nan nan nan nan nan nan nan nan 45 45 43 39 38 nan nan nan 42 43 45 nan nan nan nan nan nan nan nan nan nan nan nan nan nan nan nan nan nan nan nan nan nan nan
nan nan nan nan nan nan nan nan nan nan nan nan nan nan nan 49 44 44 42 nan nan nan nan 43 44 45 nan nan nan nan nan nan nan nan nan nan nan nan nan nan nan nan nan nan nan nan nan nan nan
nan nan nan nan nan nan nan nan nan nan nan nan nan nan nan nan 43 50 47 nan nan nan nan nan 46 nan nan nan nan nan nan nan nan nan nan nan nan nan nan nan nan nan nan nan nan nan nan nan nan
nan nan nan nan nan nan nan nan nan nan nan nan nan nan nan nan nan 44 52 48 nan nan nan nan 49 nan nan nan nan nan nan nan nan nan nan nan nan nan nan nan nan nan nan nan nan nan nan nan nan
nan nan nan nan nan nan nan nan nan nan nan nan nan nan nan nan nan nan nan nan nan nan nan nan nan nan nan nan nan nan nan nan nan nan nan nan nan nan nan nan nan nan nan nan nan nan nan nan nan
nan nan nan nan nan nan nan nan nan nan nan nan nan nan nan nan nan nan nan nan nan nan nan nan nan nan nan nan nan nan nan nan nan nan nan nan nan nan nan nan nan nan nan nan nan nan nan nan nan
nan 27 25 39 nan 36 nan nan nan nan nan nan nan nan nan nan nan nan nan nan nan nan nan nan nan nan nan nan nan nan nan nan nan nan nan nan nan nan nan nan nan nan nan nan nan nan nan nan nan
nan nan nan nan nan nan nan 39 nan nan nan nan nan nan nan nan nan nan nan nan nan nan nan nan nan nan nan nan nan nan nan nan nan nan nan nan nan nan nan nan nan nan nan nan nan nan nan nan nan
nan nan nan nan nan nan nan nan nan nan nan nan nan nan nan nan nan nan nan nan nan nan nan nan nan nan nan nan nan nan nan nan nan nan nan nan nan nan nan nan nan nan nan nan nan nan nan nan nan
28 33 nan nan nan nan nan nan nan nan nan nan nan nan nan nan nan nan nan nan nan nan nan nan nan nan nan nan nan nan nan nan nan nan nan nan nan nan nan nan nan nan nan nan nan nan nan nan nan
nan 32 nan 27 26 36 nan nan nan nan nan nan nan nan nan nan nan nan nan nan nan nan nan nan nan nan nan nan nan nan nan nan nan nan nan nan nan nan nan nan nan nan nan nan nan nan nan nan nan
38 32 23 45 nan nan nan nan 38 43 39 nan nan nan nan nan nan nan nan nan nan nan nan nan nan nan nan nan nan nan nan nan nan nan nan nan nan nan nan nan nan nan nan nan nan nan nan nan nan
40 29 39 nan nan nan nan 32 nan nan nan nan nan nan nan nan nan nan nan nan nan nan nan nan nan nan nan nan nan nan nan nan nan nan nan nan nan nan nan nan nan nan nan nan nan nan nan nan nan
nan nan 37 52 nan nan nan nan nan nan nan 51 nan nan nan nan nan nan nan nan nan nan nan nan nan nan nan nan nan nan nan nan nan nan nan nan nan nan nan nan nan nan nan nan nan nan nan nan nan
Wind_Direction
nan nan nan nan nan nan nan nan nan nan nan nan nan 260 283 255 253 279 294 292 295 295 298 293 290 294 294 292 289 284 284 279 278 278 280 282 284 286 283 276 268 267 264 261 258 255 250 249 248
nan nan nan nan nan nan nan nan nan nan 267 291 272 271 271 281 281 290 287 289 293 296 295 293 291 290 283 275 272 272 277 279 279 279 281 280 279 279 279 276 276 276 270 262 255 253 248 245 248
nan nan nan nan nan nan nan nan nan 260 266 286 286 265 271 278 283 281 290 291 292 289 288 287 286 287 283 279 274 272 277 280 280 279 279 277 275 274 277 276 273 271 268 263 257 253 252 253 252
nan nan nan nan nan nan nan nan nan nan 278 286 292 280 281 268 287 289 295 293 289 285 286 286 284 284 284 281 273 271 274 276 280 281 281 281 280 279 278 275 272 266 262 259 255 253 251 250 251
nan nan nan nan nan nan nan nan nan nan 277 292 295 291 281 283 287 293 294 290 288 288 289 288 285 284 282 278 276 274 276 280 285 nan nan nan nan nan nan nan nan nan nan nan nan nan nan nan 261
nan nan nan nan nan nan nan nan nan nan nan 294 304 284 291 295 297 296 289 288 289 290 290 286 286 285 283 284 284 nan nan nan nan nan nan nan nan nan nan nan nan nan nan nan nan nan nan nan nan
nan nan nan nan nan nan nan nan nan nan nan 304 302 284 296 303 294 297 288 289 292 292 nan nan 288 284 283 284 288 nan nan nan nan nan nan nan nan nan nan nan nan nan nan nan nan nan nan nan nan
nan nan nan nan nan nan nan nan nan nan nan nan 288 292 298 315 301 291 288 288 290 291 291 289 289 285 285 288 289 nan nan nan nan nan nan nan nan nan nan nan nan nan nan nan nan nan nan nan nan
nan nan nan nan nan nan nan nan nan nan nan 281 271 272 293 303 297 290 287 288 289 288 290 291 291 289 289 291 nan nan nan nan nan nan nan nan nan nan nan nan nan nan nan nan nan nan nan nan nan
nan nan nan nan nan nan nan nan nan nan nan 283 282 282 293 298 296 297 295 292 292 293 286 282 283 286 294 292 nan nan nan nan nan nan nan nan nan nan nan nan nan nan nan nan nan nan nan nan nan
nan nan nan nan nan nan nan nan nan nan nan nan 298 299 299 301 298 nan nan 295 293 nan nan 285 282 287 295 nan nan nan nan nan nan nan nan nan nan nan nan nan nan nan nan nan nan nan nan nan nan
nan nan nan nan nan nan nan nan nan nan nan nan nan 304 302 306 302 297 nan 294 nan 299 290 288 286 287 nan nan nan nan nan nan nan nan nan nan nan nan nan nan nan nan nan nan nan nan nan nan nan
nan nan nan nan nan nan nan nan nan nan nan nan nan 293 301 305 300 nan nan nan 292 293 286 286 286 286 nan nan nan nan nan nan nan nan nan nan nan nan nan nan nan nan nan nan nan nan nan nan nan
nan nan nan nan nan nan nan nan nan nan nan nan nan 293 299 305 298 296 nan 292 294 285 286 285 286 nan nan nan nan nan nan nan nan nan nan nan nan nan nan nan nan nan nan nan nan nan nan nan nan
nan nan nan nan nan nan nan nan nan nan nan nan nan nan 300 302 nan nan nan 291 290 281 283 284 285 284 nan nan nan nan nan nan nan nan nan nan nan nan nan nan nan nan nan nan nan nan nan nan nan
nan nan nan nan nan nan nan nan nan nan nan nan nan nan nan 299 301 nan nan 295 286 nan nan 288 286 284 nan nan nan nan nan nan nan nan nan nan nan nan nan nan nan nan nan nan nan nan nan nan nan
nan nan nan nan nan nan nan nan nan nan nan nan nan nan nan 293 296 296 298 296 nan nan nan 285 283 283 nan nan nan nan nan nan nan nan nan nan nan nan nan nan nan nan nan nan nan nan nan nan nan
nan nan nan nan nan nan nan nan nan nan nan nan nan nan nan 294 297 294 300 nan nan nan nan 285 286 285 nan nan nan nan nan nan nan nan nan nan nan nan nan nan nan nan nan nan nan nan nan nan nan
nan nan nan nan nan nan nan nan nan nan nan nan nan nan nan nan 299 293 289 nan nan nan nan nan 286 nan nan nan nan nan nan nan nan nan nan nan nan nan nan nan nan nan nan nan nan nan nan nan nan
nan nan nan nan nan nan nan nan nan nan nan nan nan nan nan nan nan 298 292 285 nan nan nan nan 285 nan nan nan nan nan nan nan nan nan nan nan nan nan nan nan nan nan nan nan nan nan nan nan nan
nan nan nan nan nan nan nan nan nan nan nan nan nan nan nan nan nan nan nan nan nan nan nan nan nan nan nan nan nan nan nan nan nan nan nan nan nan nan nan nan nan nan nan nan nan nan nan nan nan
nan nan nan nan nan nan nan nan nan nan nan nan nan nan nan nan nan nan nan nan nan nan nan nan nan nan nan nan nan nan nan nan nan nan nan nan nan nan nan nan nan nan nan nan nan nan nan nan nan
nan 287 269 242 nan 255 nan nan nan nan nan nan nan nan nan nan nan nan nan nan nan nan nan nan nan nan nan nan nan nan nan nan nan nan nan nan nan nan nan nan nan nan nan nan nan nan nan nan nan
nan nan nan nan nan nan nan 278 nan nan nan nan nan nan nan nan nan nan nan nan nan nan nan nan nan nan nan nan nan nan nan nan nan nan nan nan nan nan nan nan nan nan nan nan nan nan nan nan nan
nan nan nan nan nan nan nan nan nan nan nan nan nan nan nan nan nan nan nan nan nan nan nan nan nan nan nan nan nan nan nan nan nan nan nan nan nan nan nan nan nan nan nan nan nan nan nan nan nan
286 285 nan nan nan nan nan nan nan nan nan nan nan nan nan nan nan nan nan nan nan nan nan nan nan nan nan nan nan nan nan nan nan nan nan nan nan nan nan nan nan nan nan nan nan nan nan nan nan
nan 278 nan 277 266 259 nan nan nan nan nan nan nan nan nan nan nan nan nan nan nan nan nan nan nan nan nan nan nan nan nan nan nan nan nan nan nan nan nan nan nan nan nan nan nan nan nan nan nan
270 274 271 270 nan nan nan nan 279 254 255 nan nan nan nan nan nan nan nan nan nan nan nan nan nan nan nan nan nan nan nan nan nan nan nan nan nan nan nan nan nan nan nan nan nan nan nan nan nan
261 251 252 nan nan nan nan 266 nan nan nan nan nan nan nan nan nan nan nan nan nan nan nan nan nan nan nan nan nan nan nan nan nan nan nan nan nan nan nan nan nan nan nan nan nan nan nan nan nan
nan nan 238 257 nan nan nan nan nan nan nan 237 nan nan nan nan nan nan nan nan nan nan nan nan nan nan nan nan nan nan nan nan nan nan nan nan nan nan nan nan nan nan nan nan nan nan nan nan nan